Regional Weather Roundup
Issued by NWS

Home | Current Version | Previous Version | Text Only | Print | Product List | Glossary Off
Versions: 1 2 3 4 5 6 7 8 9 10 11 12 13 14 15 16 17 18 19 20 21 22 23 24 25 26 27 28 29 30 31 32 33 34 35 36 37 38 39 40 41 42 43 44 45 46 47 48 49 50

000
ASUS43 KMPX 291801
RWRMN
WEATHER ROUNDUP FOR MINNESOTA
NATIONAL WEATHER SERVICE TWIN CITIES/CHANHASSEN MN
100 PM CDT FRI AUG 29 2014


NOTE: "FAIR" INDICATES FEW OR NO CLOUDS BELOW 12,000 FEET WITH NO
SIGNIFICANT WEATHER AND/OR OBSTRUCTIONS TO VISIBILITY. N/A MEANS
CURRENT SKY AND/OR WEATHER CONDITIONS ARE NOT AVAILABLE.

MNZ060>063-068>070-291900-
   Twin Cities Metro

CITY           SKY/WX    TMP DP  RH WIND       PRES   REMARKS
TWIN CITIES    CLOUDY    76  68  76 SW7       29.79S
6HR MIN TEMP:  69; 6HR MAX TEMP:  77; 6HR PCP:  0.01;

ST PAUL        CLOUDY    77  68  73 SW10      29.79S
CRYSTAL        CLOUDY    71  68  90 NE3       29.78F
BLAINE         LGT RAIN  70  70 100 W7        29.81R
LAKEVILLE      PTSUNNY   75  68  78 S7        29.79S
EDEN PRAIRIE   CLOUDY    78  70  76 W5        29.77F
6HR MIN TEMP:  70; 6HR MAX TEMP:  78; 6HR PCP:  0.02;

SOUTH ST PAUL  PTSUNNY   78  67  68 SW9       29.78F
LAKE ELMO      CLOUDY    77  70  78 SW8       29.80S
$$
MNZ001>005-007-008-013>017-022>024-027-028-291900-
   Northwest Minnesota

CITY           SKY/WX    TMP DP  RH WIND       PRES   REMARKS
BEMIDJI        CLOUDY    67  64  89 S3        29.77F
HALLOCK        CLOUDY    68  64  88 CALM      29.76S FOG
ROSEAU         MOSUNNY   70  63  78 SW6       29.76S
WARROAD        CLOUDY    70  64  83 SW3       29.76S
THIEF RVR FALL CLOUDY    72  64  78 S3        29.75F
CROOKSTON      CLOUDY    70  64  83 SW7       29.77S
FOSSTON        CLOUDY    70  63  78 S3        29.77F
DETROIT LAKES  CLOUDY    68  64  88 S3        29.80R
MOORHEAD       CLOUDY    70  68  94 W3        29.78S
PARK RAPIDS    CLOUDY    66  64  93 SW3       29.78S
MAHNOMEN       CLOUDY    69  66  90 CALM      29.77F
$$
MNZ006-009>011-018-025>026-291900-
   North Central Minnesota

CITY           SKY/WX    TMP DP  RH WIND       PRES   REMARKS
BAUDETTE       CLOUDY    67  63  87 SE6       29.76F
FLAG ISLAND    CLOUDY    66  64  94 S6        29.76S
INTL FALLS     CLOUDY    67  61  81 S6        29.78F
6HR MIN TEMP:  60; 6HR MAX TEMP:  68; 6HR PCP:  0.01;

WASKISH        CLOUDY    66  64  94 CALM      29.77F FOG
BIG FORK       CLOUDY    64  63  94 CALM      29.79F
LONGVILLE      LGT RAIN  64  64 100 CALM      29.78S
GRAND RAPIDS   CLOUDY    63  61  94 E3        29.79S
CRANE LAKE     LGT RAIN  63  61  94 CALM      29.82F
ORR            CLOUDY    64  61  88 SE3       29.77F
COOK           CLOUDY    64  61  88 E3        29.81S
WALKER         CLOUDY    65  64  93 CALM      29.78S
$$
MNZ012-019>021-037-291900-
   Northeast Minnesota

CITY           SKY/WX    TMP DP  RH WIND       PRES   REMARKS
DULUTH         LGT RAIN  64  61  90 N3        29.79S
6HR MIN TEMP:  61; 6HR MAX TEMP:  64; 6HR PCP:  0.22;

ELY            CLOUDY    61  59  94 E5        29.81F
HIBBING        CLOUDY    65  60  84 CALM      29.79F
EVELETH        CLOUDY    63  61  94 NE3       29.80F
DULUTH HARBOR  DRIZZLE   63  61  94 NE7       29.79S
TWO HARBORS    DRIZZLE   61  55  82 NE5       29.77F
SILVER BAY     LGT RAIN  59  59 100 NE3       29.79F
GRAND MARAIS     N/A     61  59  93 E7        29.83F
G MARAIS ARPRT RAIN      57  54  88 E6        29.85F
$$
MNZ029>031-032-039>041-046>048-054>057-064-291900-
   West Central Minnesota

CITY           SKY/WX    TMP DP  RH WIND       PRES   REMARKS
FERGUS FALLS   CLOUDY    68  64  88 CALM      29.78S
WHEATON        CLOUDY    70  64  83 CALM      29.80S
MORRIS         CLOUDY    72  68  88 N3        29.77S
ALEXANDRIA     CLOUDY    69  66  90 SW3       29.79F
ELBOW LAKE     LGT RAIN  68  66  92 W5        29.78S
WADENA         CLOUDY    68  64  88 CALM      29.78S
GLENWOOD       CLOUDY    70  66  88 NW6       29.79F
APPLETON       CLOUDY    73  66  78 W6        29.78S
BENSON         CLOUDY    73  68  83 CALM      29.78S
ORTONVILLE     CLOUDY    70  64  83 NW3       29.78F
MADISON        PTSUNNY   75  68  78 N5        29.78F
WILLMAR        FAIR      72  70  94 NW5       29.79R
$$
MNZ033>034-036-042>043-049>051-058-059-291900-
   Central Minnesota

CITY           SKY/WX    TMP DP  RH WIND       PRES   REMARKS
ST CLOUD       HVY RAIN  71  68  90 SE3       29.77F FOG
6HR MIN TEMP:  68; 6HR MAX TEMP:  72; 6HR PCP:  0.34;

SAUK CENTRE    DRIZZLE   67  65  96 CALM      29.78F
PAYNESVILLE    LGT RAIN  66  66 100 CALM      29.78F
AITKIN         CLOUDY    68  63  83 CALM      29.77R
PINE RIVER     CLOUDY    66  66 100 CALM      29.81S
BRAINERD       CLOUDY    67  65  93 N3        29.78S
STAPLES        CLOUDY    66  64  94 CALM      29.78F
LONG PRAIRIE   LGT RAIN  64  64 100 CALM      29.79F
LITTLE FALLS   RAIN      66  64  94 CALM      29.78S
LITCHFIELD     RAIN      72  72 100 CALM      29.78F
BUFFALO        CLOUDY    69  66  91 CALM      29.80R THUNDER
MAPLE LAKE     CLOUDY    69  68  97 CALM      29.80S
$$
MNZ037-044-045-052-053-291900-
   East Central Minnesota

CITY           SKY/WX    TMP DP  RH WIND       PRES   REMARKS
PRINCETON        N/A     70  66  88 SW5       29.79S
MORA           CLOUDY    64  64 100 S3        29.79F
CAMBRIDGE      TSTM      72  64  78 S9        29.78S
RUSH CITY      CLOUDY    69  68  96 CALM      29.79F
MOOSE LAKE     RAIN      64  63  94 SE5       29.75F
HINCKLEY       CLOUDY    66  66 100 SE6       29.78F FOG
CLOQUET        RAIN      63  61  94 CALM      29.79S
MCGREGOR       CLOUDY    63  63 100 CALM      29.78S
$$
MNZ071>073-080-081-089-090-097-098-291900-
   Southwest Minnesota

CITY           SKY/WX    TMP DP  RH WIND       PRES   REMARKS
MONTEVIDEO     CLOUDY    72  72 100 N6        29.79S
GRANITE FALLS  CLOUDY    72  69  89 W5        29.79F
CANBY          CLOUDY    71  67  88 N5        29.80S
MARSHALL       CLOUDY    73  68  83 N6        29.77F
REDWOOD FALLS  RAIN      74  71  91 W10       29.76F FOG
OLIVIA         CLOUDY    73  70  88 CALM      29.77S
PIPESTONE      CLOUDY    72  70  94 S8        29.81S
WINDOM         CLOUDY    73  68  83 SW10      29.80S
WORTHINGTON    CLOUDY    72  70  94 SW10      29.83S
JACKSON        CLOUDY    72  68  88 S7        29.82F
TRACY          CLOUDY    77  70  78 CALM      29.78F
SLAYTON        CLOUDY    74  68  83 CALM      29.81S
$$
MNZ065>067-074>077-082>085-091>093-291900-
   South Central Minnesota

CITY           SKY/WX    TMP DP  RH WIND       PRES   REMARKS
MANKATO        PTSUNNY   79  66  65 SW8       29.79S
NEW ULM        DRIZZLE   73  72  94 SW6       29.78S
ST JAMES       CLOUDY    77  70  78 S7        29.80S
FAIRMONT       CLOUDY    70  66  88 SW8       29.81S
GLENCOE        CLOUDY    75  68  78 S6        29.78S
FARIBAULT      PTSUNNY   81  66  61 S7        29.80F
OWATONNA       PTSUNNY   81  68  65 SW12G17   29.81S
WASECA         CLOUDY    77  64  65 S12       29.82S
ALBERT LEA     PTSUNNY   81  70  69 S9        29.81S
$$
MNZ078>079-086>088-094>096-291900-
   Southeast Minnesota

CITY           SKY/WX    TMP DP  RH WIND       PRES   REMARKS
ROCHESTER      MOSUNNY   81  69  67 S15G23    29.83F
6HR MIN TEMP:  68; 6HR MAX TEMP:  82;

RED WING       MOSUNNY   82  70  65 W3        29.78F
STANTON        PTSUNNY   79  68  69 S6        29.78F
DODGE CENTER   MOSUNNY   82  70  65 S13       29.82S
WINONA         MOSUNNY   81  70  69 S6        29.81F
AUSTIN         MOSUNNY   81  72  74 SW12      29.82S
PRESTON        SUNNY     79  73  80 S3        29.84F
$$
ABBREVIATIONS USED IN REMARKS
   TC - TEMPERATURES IN CELSIUS
  WCI - WIND CHILL INDEX
   HX - HEAT INDEX
  VSB - VISIBILITY
$$


USA.gov is the U.S. government's official web portal to all federal, state and local government web resources and services.